Wetbulb
56.39 56.63 56.66 56.57 56.40 56.72 56.15 56.13 56.18 56.80 57.46 57.42 58.01 58.20 58.17 58.16 57.95 58.92 53.24 59.03 60.04 63.35 61.42 56.46 56.75 56.60 57.14 57.99 59.02 58.84 55.43 53.49 53.06 53.62 53.87 59.68 63.39 66.12 66.05 63.73 64.44 66.05 65.19 69.78 73.41
56.21 56.38 56.49 56.55 56.32 56.39 56.04 55.71 55.96 56.44 57.72 58.09 58.23 57.70 57.70 57.67 57.03 54.10 62.31 60.96 63.82 64.74 54.62 54.62 54.22 55.41 56.29 57.63 58.51 57.07 55.36 55.26 56.57 56.34 54.44 56.22 61.13 65.02 63.50 63.58 62.84 64.73 68.39 71.92 73.25
56.05 56.08 56.20 56.16 55.57 55.55 55.49 55.77 55.74 56.26 57.36 57.94 57.88 57.17 57.32 58.47 55.25 56.03 67.74 63.48 63.81 63.66 56.04 55.81 55.32 54.79 54.03 57.35 58.04 57.92 54.73 58.37 57.60 57.56 56.93 55.59 61.62 64.97 63.89 62.62 64.30 63.67 67.41 71.03 71.81
55.90 55.89 55.70 55.62 55.27 54.99 55.09 55.11 55.88 57.17 57.63 57.54 57.47 56.95 57.22 58.67 48.56 60.17 68.53 68.11 65.51 61.10 56.06 54.15 53.54 52.07 52.07 53.57 57.57 54.65 57.53 57.66 58.03 56.68 56.58 55.64 57.17 61.26 63.79 63.49 65.22 65.51 68.85 70.23 70.07
55.49 55.69 55.46 55.31 54.79 54.88 54.55 55.57 56.24 56.74 56.92 57.18 57.21 57.09 58.05 52.95 51.55 59.22 69.73 67.98 60.90 56.65 55.27 53.89 52.32 52.26 50.59 53.49 55.25 53.95 57.07 57.30 57.78 56.97 56.85 57.28 55.00 54.29 57.01 62.06 64.94 65.57 68.33 68.64 68.96
55.34 55.24 55.14 55.06 54.57 54.47 54.09 55.44 55.70 55.96 56.10 56.77 57.66 57.55 56.87 48.49 57.08 63.80 63.42 60.80 57.58 55.32 55.19 55.01 52.81 53.40 52.03 51.85 52.92 55.73 56.00 55.84 56.99 57.76 57.83 55.87 56.23 56.24 57.58 61.49 64.26 65.80 67.08 68.06 67.46
55.24 54.99 54.87 54.93 54.68 54.38 54.15 55.25 55.33 55.65 56.54 57.24 58.06 59.10 53.54 52.21 58.01 61.23 58.33 57.20 56.43 56.08 54.29 55.97 54.30 53.10 53.88 51.30 53.53 52.93 51.15 53.38 55.20 56.95 56.70 57.27 54.84 54.60 57.78 62.31 62.87 65.06 66.23 67.20 68.24
55.33 54.66 54.56 54.68 54.85 54.98 55.62 55.30 55.61 56.21 57.12 58.15 58.55 58.82 52.31 56.05 58.67 58.13 59.54 57.35 57.88 57.61 56.32 57.48 56.57 55.82 54.74 54.63 52.06 50.13 50.68 48.25 53.15 54.89 54.90 53.73 52.25 56.87 58.24 60.75 59.78 63.01 65.16 66.05 67.93
54.95 54.76 54.33 54.54 55.15 55.26 55.30 55.59 56.20 57.96 57.98 58.70 59.27 56.13 51.75 57.74 56.73 58.19 60.03 56.00 56.04 56.34 56.25 55.85 56.01 54.66 53.51 50.36 48.76 49.58 45.93 47.50 49.19 53.48 53.13 52.61 52.75 57.21 57.29 57.24 58.09 59.42 62.89 66.05 66.83
54.46 54.47 54.17 54.43 54.89 55.10 55.05 56.25 58.49 58.17 58.96 59.74 58.96 54.67 56.08 54.14 57.96 57.46 59.23 56.51 53.75 54.73 53.91 54.32 54.56 51.37 51.22 49.21 44.02 46.12 46.41 47.25 47.60 51.27 51.96 51.20 51.69 55.86 56.64 56.37 56.69 57.73 59.64 62.66 66.04
54.13 53.84 54.05 54.07 54.14 54.77 56.66 60.07 58.43 56.42 56.85 55.04 54.90 53.84 54.36 57.39 59.01 56.52 58.14 56.76 56.31 54.77 50.73 52.89 49.71 47.63 48.85 49.93 49.80 48.56 47.43 47.02 49.24 51.38 50.60 50.50 51.41 53.36 55.74 56.30 56.15 56.99 57.91 59.42 63.73
53.59 53.59 53.76 53.72 54.35 55.39 58.48 57.72 57.07 57.43 53.45 56.88 56.13 55.80 56.96 56.99 53.84 55.68 57.63 54.84 53.33 50.10 51.65 50.06 47.55 50.04 50.30 49.61 48.52 48.14 47.09 47.27 49.30 50.50 50.03 49.87 49.78 52.52 54.65 55.36 56.44 56.95 57.72 58.37 60.83
53.27 53.19 53.35 53.10 54.28 56.05 59.00 57.10 59.81 58.97 54.32 53.62 54.95 54.89 55.50 57.06 53.57 54.16 55.69 54.52 52.75 50.79 50.70 49.09 50.10 51.14 49.85 49.32 48.17 48.69 47.52 47.50 47.14 49.64 51.31 50.20 48.63 50.66 53.36 55.20 56.48 57.76 59.09 59.50 59.67
53.35 52.96 53.06 52.98 52.93 59.47 57.89 59.15 58.09 59.38 52.13 51.09 52.77 54.82 56.12 55.92 51.81 55.80 55.59 54.95 53.62 50.81 51.43 51.03 52.62 50.58 50.04 48.91 49.90 47.61 50.86 49.48 48.02 47.66 45.27 50.64 44.25 50.43 52.29 53.07 55.10 56.64 58.49 59.42 61.35
52.97 53.04 53.04 51.50 59.08 58.29 57.06 57.27 60.11 58.87 43.20 52.44 53.19 58.41 56.47 53.50 53.42 52.98 55.65 55.11 51.57 50.86 51.96 50.00 50.08 49.81 49.38 49.89 51.15 49.28 51.39 50.50 50.29 49.06 48.83 48.57 46.29 49.43 52.40 51.88 54.10 55.77 57.49 59.57 62.37
52.86 52.75 52.71 55.36 59.44 59.52 56.90 59.98 58.95 50.26 42.13 49.09 52.54 51.30 51.81 51.47 50.31 51.87 51.62 54.73 52.91 51.52 52.24 51.79 54.21 52.43 52.22 52.90 52.36 53.02 51.22 51.32 51.43 49.56 43.69 47.76 47.12 47.04 49.67 52.29 54.09 55.78 57.50 58.89 61.25
52.57 53.04 54.24 57.42 56.06 56.22 57.53 59.14 49.78 45.73 50.09 46.17 47.44 49.67 49.69 47.82 47.07 48.52 47.21 45.37 46.23 46.79 47.73 50.22 50.85 52.32 52.94 51.02 53.40 52.33 50.21 44.26 43.13 43.51 42.85 49.43 46.68 48.69 52.41 53.83 54.83 55.52 57.29 59.07 59.92
51.64 52.46 54.11 55.17 56.73 56.85 60.15 54.26 44.17 43.84 44.65 47.19 47.27 48.41 45.73 47.71 45.46 45.42 45.28 43.62 43.84 45.72 48.03 45.30 44.94 47.10 50.55 47.17 46.98 49.30 50.38 44.98 39.17 41.09 44.10 49.36 44.69 49.13 54.16 55.52 58.77 59.89 61.44 63.37 63.96
50.68 57.52 56.23 55.30 56.70 60.08 55.92 48.21 44.22 42.88 43.59 44.08 46.91 46.16 44.54 46.10 46.61 44.16 42.06 41.19 40.32 43.14 43.14 42.17 44.50 47.33 47.91 47.91 49.82 49.17 47.61 49.62 46.09 47.55 44.03 46.43 49.69 53.03 54.93 56.47 56.66 56.76 57.65 58.89 62.48
59.48 56.83 52.98 55.31 57.70 58.75 53.51 41.42 43.13 43.92 44.32 45.90 43.59 44.68 42.73 42.77 44.48 43.87 41.06 40.94 39.06 41.36 44.44 41.03 38.39 44.29 44.25 46.97 49.63 44.51 47.14 44.27 47.16 39.94 38.98 44.31 46.20 47.61 51.82 52.32 53.68 53.95 54.46 56.25 58.74
58.06 54.98 53.28 55.88 57.65 54.89 47.82 43.09 42.54 44.16 44.95 43.36 42.04 41.08 40.52 41.12 42.74 41.07 39.19 39.39 39.99 40.13 42.76 40.66 38.39 41.19 42.43 40.13 38.95 42.38 44.04 43.44 44.92 44.99 40.41 39.49 43.97 53.15 49.76 49.80 49.25 49.55 50.55 53.05 56.07
56.60 52.29 53.39 55.53 50.36 48.52 44.75 43.34 42.17 42.56 44.83 42.61 43.27 41.89 40.23 40.82 40.30 38.82 37.62 39.10 40.93 41.53 37.79 40.57 38.92 35.73 36.25 41.48 45.38 44.51 39.91 40.26 37.32 38.50 41.05 39.59 41.90 53.61 52.89 49.91 48.04 47.83 49.11 50.86 55.83
51.82 49.76 53.84 54.96 45.62 42.29 43.55 41.77 42.90 41.36 41.89 41.28 39.94 42.10 42.19 39.27 37.08 38.40 38.50 40.83 41.14 41.21 38.86 40.73 37.36 34.23 36.99 41.27 42.54 38.29 39.73 40.27 39.84 39.09 35.04 34.11 38.88 53.97 50.97 47.13 47.00 48.06 51.76 53.54 55.27
51.62 46.27 48.22 49.19 49.07 44.70 42.14 40.79 38.81 42.73 42.01 42.95 41.32 42.30 41.15 39.52 41.17 37.88 38.04 39.49 41.17 41.82 40.37 41.75 38.54 33.96 32.24 34.00 37.28 35.20 37.24 39.09 38.37 33.88 35.17 36.20 38.45 42.24 43.80 43.83 45.73 48.32 49.61 51.02 52.23
49.55 42.66 44.03 43.03 43.41 44.28 43.57 41.63 39.25 37.50 41.84 43.06 40.75 40.50 39.69 37.58 38.68 37.56 38.58 39.20 39.71 39.89 41.81 41.52 35.31 36.54 36.94 37.52 37.50 36.75 36.41 37.40 36.63 37.57 33.88 36.39 36.82 40.62 43.18 44.49 45.77 47.20 48.38 48.69 49.83
46.58 44.78 46.20 44.07 44.45 43.42 41.28 40.48 39.34 39.65 40.81 38.77 39.57 39.73 40.92 39.13 39.52 36.80 38.65 39.06 37.43 41.22 40.86 40.77 36.23 37.27 36.11 37.39 38.15 35.89 36.62 37.17 37.90 38.03 37.82 37.98 37.48 44.44 45.85 46.09 45.58 46.60 47.09 47.02 48.33
48.84 49.91 47.26 41.71 42.54 41.71 40.77 40.05 39.70 41.65 41.66 41.98 40.88 40.87 39.90 39.95 41.84 42.64 43.35 41.37 42.01 40.06 38.21 38.62 37.70 35.76 32.22 37.13 37.44 32.34 36.79 37.31 37.44 39.00 38.18 34.30 39.66 43.60 43.50 44.43 43.69 45.45 46.91 46.67 47.96
MSLP
1016.25 1015.88 1015.59 1015.47 1015.32 1015.21 1015.12 1015.06 1015.02 1014.89 1014.76 1014.69 1014.44 1014.30 1014.22 1014.18 1013.89 1012.98 1011.00 1009.95 1009.77 1010.08 1010.22 1009.04 1008.53 1008.10 1007.74 1006.71 1006.50 1005.94 1004.28 1002.72 1002.86 1003.05 1003.16 1003.77 1003.75 1004.44 1004.78 1004.80 1005.42 1006.02 1006.50 1007.33 1008.84
1016.13 1015.78 1015.54 1015.32 1015.15 1015.04 1014.96 1014.89 1014.88 1014.81 1014.66 1014.51 1014.41 1014.21 1014.22 1014.03 1012.72 1010.93 1009.62 1009.92 1010.12 1010.17 1009.56 1008.52 1007.67 1007.52 1006.75 1006.28 1005.96 1005.43 1003.86 1002.66 1003.52 1003.91 1003.54 1003.55 1003.74 1004.04 1004.60 1004.63 1004.86 1005.91 1007.20 1007.94 1008.89
1016.02 1015.69 1015.35 1015.08 1014.97 1014.86 1014.77 1014.69 1014.60 1014.53 1014.51 1014.41 1014.32 1014.24 1014.15 1013.80 1011.72 1008.70 1009.65 1009.89 1010.18 1010.13 1008.96 1008.30 1007.88 1007.20 1006.23 1005.80 1005.43 1005.05 1004.00 1003.19 1004.00 1004.35 1004.21 1003.83 1003.69 1004.05 1004.00 1003.57 1003.94 1004.61 1006.45 1007.57 1008.38
1015.80 1015.51 1015.18 1014.90 1014.71 1014.61 1014.56 1014.49 1014.38 1014.34 1014.27 1014.25 1014.19 1014.12 1013.94 1013.10 1009.70 1008.77 1009.53 1009.60 1010.04 1009.39 1008.78 1008.14 1007.66 1006.81 1005.93 1005.30 1005.11 1005.03 1004.48 1004.15 1004.07 1004.42 1004.22 1003.74 1003.94 1003.67 1003.56 1002.81 1003.79 1004.36 1005.58 1006.74 1007.46
1015.62 1015.32 1014.98 1014.68 1014.52 1014.43 1014.38 1014.31 1014.28 1014.20 1014.16 1014.09 1014.00 1013.94 1013.85 1011.35 1008.66 1008.85 1009.33 1009.53 1009.70 1009.17 1008.16 1007.66 1007.14 1006.38 1005.60 1005.07 1005.09 1005.09 1004.12 1004.34 1004.51 1004.40 1004.16 1004.00 1003.65 1003.44 1003.14 1003.25 1003.89 1004.22 1005.22 1006.19 1006.67
1015.45 1015.14 1014.84 1014.50 1014.28 1014.19 1014.14 1014.07 1014.08 1014.01 1013.94 1013.86 1013.85 1013.91 1012.46 1009.84 1008.76 1008.94 1009.10 1009.20 1008.83 1008.65 1008.10 1007.76 1007.03 1006.72 1005.83 1005.52 1005.27 1004.56 1004.50 1004.48 1004.30 1004.07 1003.97 1003.89 1003.12 1003.59 1002.29 1002.92 1003.76 1004.22 1004.90 1005.61 1006.14
1015.25 1014.92 1014.57 1014.24 1014.05 1014.02 1013.95 1013.94 1013.98 1013.86 1013.79 1013.73 1013.64 1013.10 1011.09 1008.78 1008.78 1008.89 1009.04 1008.63 1008.66 1008.36 1008.02 1007.96 1007.76 1007.26 1006.31 1005.68 1005.81 1005.36 1005.06 1004.55 1004.13 1003.93 1003.69 1003.73 1003.12 1002.78 1002.30 1002.97 1003.27 1003.77 1004.28 1004.94 1005.69
1015.03 1014.74 1014.41 1014.07 1013.83 1013.74 1013.74 1013.82 1013.85 1013.74 1013.64 1013.56 1013.54 1012.19 1009.31 1008.68 1008.90 1008.82 1008.72 1008.82 1008.93 1008.81 1008.44 1008.29 1008.10 1007.18 1006.55 1006.42 1005.91 1005.34 1004.95 1003.74 1003.24 1003.37 1003.62 1004.11 1002.30 1001.90 1002.25 1002.77 1002.68 1003.18 1003.72 1004.32 1005.04
1014.92 1014.60 1014.22 1013.92 1013.61 1013.52 1013.66 1013.73 1013.68 1013.56 1013.50 1013.45 1012.72 1011.24 1008.24 1009.22 1008.58 1008.07 1008.32 1008.06 1008.56 1008.70 1008.64 1008.54 1007.94 1006.99 1006.90 1005.91 1005.15 1004.99 1003.87 1003.34 1003.11 1003.21 1003.44 1003.49 1002.27 1001.75 1002.14 1002.52 1002.48 1002.53 1002.92 1003.68 1004.18
1014.77 1014.42 1014.02 1013.70 1013.49 1013.53 1013.67 1013.69 1013.66 1013.41 1013.30 1012.71 1011.79 1010.73 1008.19 1007.67 1007.80 1008.03 1008.25 1008.15 1007.94 1008.14 1008.13 1007.85 1007.12 1006.44 1005.90 1005.33 1004.01 1003.60 1003.77 1003.54 1003.47 1003.35 1003.69 1002.88 1002.30 1001.78 1001.84 1002.32 1002.20 1002.09 1002.33 1002.55 1003.22
1014.59 1014.21 1013.84 1013.60 1013.54 1013.52 1013.46 1013.17 1013.08 1012.21 1011.31 1009.44 1008.86 1008.35 1007.65 1007.58 1007.74 1007.55 1007.86 1007.76 1007.65 1007.41 1006.68 1007.14 1006.26 1005.38 1004.95 1005.36 1005.21 1005.14 1004.82 1004.20 1003.86 1003.99 1004.16 1003.34 1002.54 1002.08 1001.88 1001.76 1001.80 1001.61 1001.68 1001.86 1002.00
1014.36 1014.03 1013.80 1013.55 1013.44 1013.57 1013.16 1010.68 1010.51 1010.40 1009.06 1008.45 1008.34 1008.17 1007.90 1007.74 1007.07 1007.48 1007.84 1007.33 1007.00 1006.24 1006.68 1006.72 1005.58 1005.42 1006.07 1006.15 1005.99 1005.50 1004.94 1004.32 1004.13 1004.51 1004.59 1003.45 1002.53 1002.07 1001.82 1001.51 1001.33 1001.18 1000.94 1001.22 1001.49
1014.06 1013.79 1013.53 1013.44 1013.48 1013.38 1011.35 1010.27 1010.04 1010.07 1008.64 1007.72 1007.60 1007.22 1007.30 1007.57 1007.06 1007.16 1007.49 1007.06 1006.54 1006.14 1006.05 1005.65 1005.54 1006.27 1006.18 1005.91 1005.85 1005.26 1004.89 1004.48 1004.38 1004.31 1004.27 1003.54 1002.36 1001.86 1001.44 1001.17 1000.92 1001.04 1000.90 1000.60 1000.73
1013.75 1013.44 1013.30 1013.27 1013.58 1010.97 1010.14 1010.10 1009.84 1009.80 1007.52 1007.15 1006.78 1007.19 1007.18 1007.17 1007.90 1008.35 1008.56 1007.74 1006.60 1006.04 1005.84 1005.82 1005.64 1006.16 1005.97 1005.64 1005.51 1004.74 1004.40 1004.69 1004.48 1004.27 1003.02 1002.92 1001.31 1000.34 1000.08 1000.06 1000.41 1000.33 1000.12 1000.25 1000.41
1013.28 1013.09 1013.00 1013.17 1011.35 1010.09 1010.08 1009.81 1009.52 1009.40 1006.99 1007.28 1006.93 1007.43 1007.37 1007.42 1008.34 1008.75 1009.21 1007.92 1007.09 1006.72 1006.72 1005.64 1006.05 1006.09 1005.79 1005.36 1005.72 1004.88 1005.16 1004.79 1004.47 1003.94 1003.31 1002.53 1001.75 1000.16 1000.04 999.77 1000.09 999.67 999.47 999.56 999.81
1012.79 1012.66 1012.82 1012.50 1011.29 1009.91 1009.83 1009.67 1009.51 1008.38 1007.35 1007.64 1007.88 1007.76 1007.66 1008.81 1009.60 1009.53 1009.60 1009.34 1009.54 1008.18 1007.43 1006.80 1007.24 1007.11 1006.76 1006.23 1005.96 1005.60 1005.23 1004.56 1003.91 1003.44 1002.28 1001.68 1001.22 999.64 999.45 999.33 999.59 999.24 999.12 999.32 999.40
1012.42 1012.44 1012.66 1010.86 1009.97 1009.98 1009.78 1009.03 1008.02 1007.71 1008.93 1009.40 1009.38 1009.31 1009.45 1010.10 1010.92 1011.14 1011.06 1011.58 1011.15 1009.61 1008.26 1007.91 1007.56 1008.18 1008.35 1006.91 1005.58 1005.68 1005.40 1004.06 1002.73 1001.72 1000.68 1000.36 999.78 999.47 999.56 999.93 1000.10 999.96 999.72 999.49 999.57
1012.34 1012.38 1011.96 1010.74 1010.37 1010.04 1009.24 1008.31 1008.43 1010.18 1010.50 1011.20 1010.98 1010.55 1010.71 1011.46 1012.36 1012.66 1012.50 1012.89 1013.75 1012.76 1010.87 1009.91 1009.31 1009.90 1010.02 1009.62 1008.50 1007.34 1006.52 1005.40 1003.66 1002.35 1000.82 1000.34 1000.04 1000.02 1000.46 1000.94 1001.47 1002.39 1002.75 1002.61 1002.41
1012.56 1011.38 1010.66 1010.80 1010.49 1009.95 1008.71 1008.41 1010.69 1012.07 1012.76 1012.39 1011.73 1011.20 1011.77 1012.36 1012.55 1013.60 1014.83 1015.26 1016.15 1015.56 1014.06 1012.95 1011.03 1011.45 1011.31 1010.75 1009.87 1008.05 1007.66 1008.20 1006.45 1004.91 1002.90 1001.67 1000.56 1000.49 1001.11 1002.80 1004.11 1004.72 1004.90 1004.80 1004.27
1011.41 1010.56 1010.97 1011.01 1010.55 1009.50 1008.80 1011.23 1012.87 1014.07 1014.04 1013.45 1012.48 1012.88 1012.53 1013.43 1013.38 1014.19 1015.88 1017.81 1017.62 1017.62 1016.78 1016.02 1014.14 1012.74 1012.35 1011.37 1010.84 1011.21 1010.70 1008.94 1007.13 1005.65 1003.60 1002.29 1001.60 1001.43 1003.52 1004.93 1006.02 1006.55 1006.84 1006.73 1006.16
1011.29 1009.90 1011.30 1011.02 1010.18 1009.38 1009.95 1012.66 1014.25 1015.11 1015.08 1014.58 1014.36 1014.30 1014.66 1014.73 1015.03 1015.82 1017.48 1019.08 1019.10 1018.66 1018.11 1017.50 1016.67 1013.82 1013.38 1013.05 1013.36 1012.33 1011.26 1011.92 1010.75 1008.94 1006.45 1004.61 1003.32 1004.48 1005.95 1006.83 1007.64 1008.20 1008.30 1007.84 1007.28
1011.16 1010.02 1011.74 1011.24 1010.41 1011.40 1012.42 1014.16 1015.66 1015.86 1015.94 1016.04 1016.02 1015.96 1016.10 1016.17 1016.50 1017.18 1018.32 1019.35 1020.14 1019.66 1018.91 1019.06 1017.96 1015.82 1015.20 1015.42 1015.32 1014.74 1015.28 1015.03 1013.35 1010.91 1009.93 1008.85 1005.92 1006.35 1006.63 1007.97 1009.39 1009.73 1009.61 1009.07 1008.52
1011.12 1011.54 1012.14 1011.24 1011.14 1012.92 1014.68 1015.71 1016.48 1016.78 1016.95 1016.98 1017.18 1017.29 1017.40 1017.45 1017.77 1018.56 1019.45 1020.64 1020.75 1020.41 1020.43 1020.02 1018.63 1016.64 1015.25 1016.09 1016.36 1016.50 1016.99 1016.86 1016.51 1015.64 1012.97 1011.08 1007.14 1006.91 1007.34 1009.13 1010.70 1010.62 1010.39 1009.89 1009.22
1011.79 1011.78 1012.98 1013.08 1013.41 1014.02 1015.04 1016.19 1017.22 1018.20 1018.22 1018.14 1018.24 1018.21 1018.12 1018.30 1018.53 1019.34 1020.20 1021.21 1021.43 1021.36 1021.92 1021.13 1019.91 1019.00 1017.95 1018.06 1018.44 1018.19 1018.10 1017.96 1017.61 1016.39 1014.36 1012.16 1010.88 1010.35 1010.27 1010.91 1010.98 1011.56 1011.47 1011.01 1010.67
1012.86 1014.67 1015.64 1014.70 1015.26 1015.65 1016.02 1016.99 1017.46 1018.43 1019.01 1019.12 1019.08 1019.05 1018.81 1018.89 1019.36 1020.06 1020.68 1021.37 1021.90 1022.32 1021.79 1021.22 1020.12 1020.07 1019.43 1019.30 1019.15 1019.11 1019.04 1018.79 1018.22 1017.57 1016.58 1014.65 1014.07 1013.43 1013.32 1012.91 1013.05 1012.07 1012.09 1011.75 1010.90
1014.14 1014.89 1015.95 1016.39 1016.50 1016.55 1017.38 1018.05 1018.47 1019.32 1019.33 1019.73 1019.52 1020.04 1019.91 1020.01 1020.41 1020.73 1021.07 1021.30 1021.67 1021.89 1021.79 1021.86 1020.65 1020.52 1019.33 1019.28 1019.23 1019.13 1019.66 1019.62 1019.22 1018.79 1018.26 1017.14 1015.41 1014.86 1013.94 1013.80 1013.77 1013.44 1012.70 1011.72 1010.94
1016.21 1016.22 1015.56 1017.13 1017.30 1017.29 1018.58 1019.09 1019.68 1019.96 1020.77 1020.84 1020.77 1020.53 1020.92 1021.87 1022.06 1022.02 1022.19 1022.38 1022.46 1022.31 1022.00 1021.90 1021.50 1020.71 1019.42 1019.76 1018.86 1019.70 1020.37 1021.04 1021.28 1021.09 1020.88 1019.10 1017.17 1016.31 1014.86 1014.52 1014.96 1014.68 1013.87 1013.01 1011.56
Wind_Speed
11 10 9 9 8 7 6 6 7 7 8 8 8 6 5 7 11 8 11 1 2 1 6 4 7 7 8 9 7 6 11 9 5 5 5 5 9 7 1 5 6 5 1 7 18
12 11 10 9 8 7 6 6 7 7 7 7 6 5 5 6 10 14 1 3 3 5 12 10 10 9 12 13 7 11 11 8 4 3 6 4 6 13 8 7 9 9 7 14 18
12 11 10 9 8 8 7 7 6 7 7 6 5 4 4 8 9 4 6 6 7 10 9 9 6 10 16 12 14 14 14 4 6 5 6 6 5 6 11 11 10 11 13 17 18
13 12 10 9 9 7 7 6 7 7 6 5 4 4 3 6 2 6 6 7 9 9 10 11 10 13 15 16 14 16 16 7 3 3 8 6 3 6 11 9 5 4 18 20 19
14 13 11 10 8 7 6 6 7 6 5 5 5 4 6 8 3 5 1 11 14 8 9 10 11 12 14 14 10 17 18 8 9 8 9 10 8 8 10 8 4 5 17 19 19
15 13 12 9 8 6 5 6 6 5 4 5 6 5 8 7 4 5 6 12 10 12 7 7 5 5 9 10 15 11 17 12 11 13 11 12 8 6 6 10 8 12 16 17 19
15 14 12 10 7 5 5 5 6 5 5 6 6 6 6 5 2 4 7 2 8 4 6 4 3 9 3 8 3 5 11 14 17 17 16 10 14 10 9 8 11 12 14 16 18
15 13 12 10 7 4 4 6 6 5 5 6 7 7 5 3 0 6 6 5 5 2 1 3 4 3 8 3 6 11 10 15 16 16 13 11 15 16 9 9 11 10 11 14 18
15 13 12 10 6 2 4 4 5 5 4 7 7 5 3 5 5 6 9 4 8 5 4 6 7 3 6 11 10 9 13 13 15 8 14 12 18 17 6 9 14 12 12 14 16
15 12 11 9 3 4 5 3 7 10 6 5 4 6 6 2 4 7 6 10 6 11 8 8 8 9 9 10 11 9 9 8 11 8 11 18 17 19 10 8 11 15 15 16 17
15 13 10 7 1 6 10 6 8 7 6 7 3 5 0 5 7 6 9 9 10 9 8 7 9 10 5 4 10 8 10 12 9 5 11 14 15 15 16 13 14 15 16 18 20
15 12 9 4 2 5 6 5 6 6 5 3 4 5 6 2 4 7 9 10 9 10 5 9 10 2 3 4 8 9 12 13 10 6 7 14 19 19 18 16 16 19 18 19 19
15 11 7 2 5 5 5 2 3 5 7 5 2 4 3 8 3 7 11 10 9 9 9 10 7 4 6 6 9 11 13 13 12 12 12 17 19 20 18 22 16 13 16 17 20
14 9 5 4 3 4 4 3 9 5 6 5 3 6 4 3 5 6 7 10 6 5 4 6 2 8 8 10 8 12 7 9 12 11 11 2 13 13 13 16 18 18 15 16 18
13 8 5 14 4 4 5 8 2 5 6 5 7 3 10 3 1 9 10 7 4 2 6 7 2 4 7 5 4 10 2 8 11 13 15 15 13 13 16 13 16 19 18 12 12
11 4 8 5 4 2 8 2 5 8 4 5 6 6 4 16 8 4 5 10 2 6 5 9 5 6 13 10 9 14 13 16 16 14 16 18 19 16 13 14 13 16 14 15 11
8 6 7 2 4 9 6 5 6 6 0 5 5 5 10 10 9 13 16 17 9 5 2 3 4 6 15 12 7 7 13 12 14 13 13 14 15 9 9 11 11 12 12 10 5
4 9 5 6 8 5 5 6 6 3 5 4 4 6 6 6 8 9 5 10 17 11 4 6 10 12 9 11 10 15 10 11 20 16 15 10 8 6 2 7 13 21 19 19 20
4 3 3 10 8 4 7 4 6 3 3 5 2 3 6 6 4 5 12 8 12 15 9 7 4 8 6 13 7 8 8 14 13 18 19 18 23 18 5 13 16 18 20 21 22
3 2 6 15 7 6 1 5 4 4 3 3 1 5 3 6 3 4 6 10 5 10 7 5 8 6 10 9 6 11 10 9 10 16 22 14 17 9 13 13 14 18 20 22 23
4 4 10 12 5 2 2 6 8 7 2 6 4 4 7 3 7 5 7 8 8 7 6 5 3 7 9 10 13 9 3 7 8 10 14 18 14 11 11 16 19 22 24 25 25
2 4 11 9 3 4 5 7 3 6 8 6 7 8 7 4 7 5 7 7 7 6 4 8 4 8 8 5 7 9 10 10 7 9 9 11 15 10 8 18 24 26 25 25 24
3 4 8 5 4 7 12 15 11 4 7 4 5 7 4 4 5 7 7 6 7 6 6 6 4 7 8 9 7 8 13 12 11 12 16 15 12 3 17 26 26 26 26 24 23
2 2 6 8 8 15 14 7 8 7 12 10 7 5 5 8 5 7 10 5 5 7 5 6 2 6 7 9 10 13 15 14 12 11 16 22 28 29 31 31 30 26 25 27 26
4 5 5 5 8 9 8 7 10 5 5 5 6 6 3 6 9 9 6 10 5 3 1 4 3 6 7 9 10 11 13 15 17 16 18 23 27 26 26 27 23 32 27 28 27
3 4 8 9 7 10 4 8 11 9 3 5 6 5 4 9 8 8 3 3 4 4 2 3 3 7 12 4 12 11 4 6 10 12 17 24 30 26 27 26 23 24 26 29 28
4 4 3 5 6 6 7 4 8 5 6 7 4 7 9 9 6 4 3 3 3 3 5 5 7 8 5 14 12 6 12 15 17 18 23 27 33 34 34 25 20 24 25 30 30
Wind_Direction
334 331 326 314 303 297 296 288 283 278 272 273 278 284 296 293 273 229 256 284 72 93 198 209 197 194 213 230 236 262 254 226 178 247 63 132 199 174 81 182 193 168 9 93 133
338 334 325 315 308 297 285 282 271 270 273 270 271 281 282 300 267 262 172 95 237 207 213 214 205 198 216 234 217 240 242 224 53 22 349 39 236 169 195 199 193 160 121 137 149
342 337 330 322 309 298 284 271 266 267 266 264 260 255 264 278 263 120 54 191 206 218 239 224 257 227 231 226 216 228 253 196 199 292 314 358 166 209 213 216 231 203 160 159 165
345 340 335 326 313 298 281 268 258 258 259 256 241 234 263 244 291 89 358 202 180 213 194 192 215 215 228 214 221 246 239 284 275 262 289 314 343 218 231 252 60 228 160 169 174
345 342 337 330 318 298 275 260 250 247 246 237 220 217 228 224 257 59 38 132 174 195 193 195 215 225 228 225 203 237 250 245 250 267 279 297 276 309 267 242 226 186 166 181 176
345 344 339 332 322 300 272 263 250 241 239 231 211 212 245 246 71 39 120 148 172 196 189 218 257 245 264 235 225 244 248 253 254 259 259 276 276 292 245 172 191 168 177 187 189
345 344 340 335 324 292 253 239 230 223 217 209 204 243 246 291 92 81 169 105 165 204 195 193 255 219 172 201 210 217 239 230 245 249 254 274 260 241 250 189 196 199 186 191 199
345 343 341 335 324 282 225 211 206 200 193 184 211 241 269 112 144 210 183 142 173 157 335 205 207 263 255 72 196 227 238 249 229 232 235 232 252 222 183 207 222 198 206 203 197
344 341 340 336 322 241 194 196 188 165 166 177 216 259 138 132 215 184 193 166 151 163 112 157 217 267 190 223 212 195 250 213 256 190 256 217 247 251 144 224 238 235 215 213 212
343 340 339 343 353 151 161 234 154 158 190 224 261 235 207 71 114 141 163 161 145 150 151 190 209 223 221 226 240 254 214 222 257 170 227 244 243 255 201 227 227 232 236 226 218
340 340 339 345 119 164 151 170 199 178 213 286 1 312 197 85 165 166 166 177 159 204 202 201 235 220 238 276 319 293 272 271 270 281 271 265 259 251 251 244 244 241 233 235 229
336 333 329 329 170 183 275 268 40 358 298 210 267 264 257 317 150 137 190 209 205 215 182 202 231 255 264 256 256 258 265 261 274 275 268 261 258 254 244 247 249 247 244 235 236
328 322 319 303 145 205 257 10 337 307 254 122 90 37 80 200 72 79 200 218 223 224 216 273 82 95 221 212 247 245 262 275 272 286 270 262 263 255 250 245 247 247 252 249 237
322 312 292 178 198 153 195 320 298 222 243 91 119 73 102 188 87 33 14 288 219 269 248 270 329 245 245 253 257 270 279 259 265 262 269 113 280 282 240 236 230 238 227 227 234
319 298 234 227 357 227 23 315 246 218 207 62 58 99 48 68 108 53 25 250 310 169 249 95 198 225 255 301 277 288 319 278 280 272 274 253 255 264 255 229 252 238 239 239 237
324 273 172 186 232 11 324 283 216 230 128 81 59 12 122 50 47 1 46 34 359 263 228 288 310 309 327 306 263 296 281 272 266 253 252 252 251 266 259 224 242 249 228 246 244
342 172 208 290 340 323 304 218 227 279 123 58 9 0 72 48 64 48 67 55 26 283 171 296 59 82 7 314 266 264 270 271 260 239 249 255 257 283 291 289 270 283 292 292 282
1 169 199 35 328 297 230 223 246 72 38 24 5 54 73 4 60 45 78 65 31 1 336 321 171 12 2 9 318 289 294 285 297 289 290 298 248 245 33 288 8 17 2 356 347
174 172 67 352 342 258 246 231 33 31 3 347 231 203 106 57 82 98 60 55 32 16 9 336 161 16 14 335 331 357 285 325 285 273 269 267 266 254 265 48 31 16 8 0 350
249 174 41 338 337 252 186 73 106 25 355 276 58 338 116 29 120 81 78 34 33 23 337 49 290 53 340 302 159 342 331 298 229 271 269 265 268 275 64 40 22 9 2 353 349
254 229 21 343 276 30 93 75 105 50 63 2 66 102 76 73 47 66 65 76 24 29 36 358 298 357 316 34 331 328 327 315 304 282 289 283 273 70 67 30 10 357 348 343 342
266 228 13 326 80 48 87 121 80 75 71 82 58 65 65 50 69 89 89 65 20 346 33 29 317 307 321 21 46 44 46 2 313 302 308 298 271 157 72 10 356 338 331 329 331
75 39 28 285 134 98 107 95 67 90 38 78 80 57 72 88 111 92 105 73 32 28 24 354 109 292 160 165 176 9 331 317 298 281 267 280 272 100 335 341 334 330 338 330 332
104 129 65 47 71 121 122 103 113 67 65 67 89 107 121 86 82 129 119 84 73 66 14 284 91 347 333 335 318 304 308 311 296 278 288 269 297 301 317 322 321 326 323 325 329
18 67 341 98 71 96 89 113 119 113 76 25 93 74 91 125 111 109 101 131 126 105 106 332 18 314 321 293 294 295 293 298 290 292 284 304 298 304 312 308 318 313 320 315 311
93 126 97 84 85 92 90 80 104 98 4 81 100 91 77 89 32 119 122 84 58 92 57 30 32 318 293 359 309 295 305 311 305 310 313 306 298 300 316 311 306 300 300 307 307
80 50 94 110 94 90 46 93 107 127 67 52 98 129 103 64 24 35 31 75 58 349 35 352 344 330 331 332 302 143 18 359 338 331 320 302 308 310 301 309 318 305 307 300 296